星链-35786(STARLINK-35786)

导读

STARLINK-35786是美国SpaceX星链星座的一颗卫星,于2025年12月11日成功发射升空。作为星链互联网星座的组成部分,它主要为全球范围提供低延迟、高速率的宽带互联网服务,尤其覆盖偏远地区与网络基础设施薄弱区域,进一步扩充了星链星座的在轨服务规模,推动全球卫星互联网组网进程。

Basic Information
目录编号:
67040
目录名称:
STARLINK-35786
国际标识:
2025-294L
轨道中心:
EARTH
卫星名称:
星链-35786
卫星全名:
星链-35786(STARLINK-35786)
卫星状态:
在轨 (已飞行268 天)
发射日期:
2025-12-11 UTC
国别 :
美国 (US)
星等 :
--
Orbit Information
数据来源 国际轨道数据
星历时间: 2026-09-05T08:34:35+0800
18小时前
查看轨道信息
半长轴: 6861.163km
偏心率: 0.0001074
轨道倾角: 42.999°
近地点辐角 288.824°
升交点赤经 105.501°
平近点角 71.249°
近地点: 482.289km
远地点: 483.763km
周期: 94.266分钟
每日圈数: 15.275878
Detailed Information
固有亮度:
5
最大亮度:
2.5
卫星平台:
Starlink V1.0
覆盖范围:
全球
运营商:
太空探索技术公司
运营商所在国:
美国
制造商(研发单位):
太空探索技术公司
制造商所在国:
美国
使用方式:
暂无
Satellite Introduction
Starlink 计划是 SpaceX 推出的全球卫星互联网项目,通过发射低轨道卫星,为全球尤其是偏远地区提供高速、低延迟的互联网服务。自 2019 年起,Starlink 已部署数千颗卫星,旨在缩小全球数字鸿沟,推动互联网普及。该项目还为军事、航空等行业提供通信支持,带来广泛经济效益。
2D Orbit Map
3D Orbit Map
Orbit Altitude Analysis Chart
Orbit Inclination Analysis Chart
Orbit Comprehensive Analysis Chart
View Comprehensive Chart
Conjunction Data List
Event ID Objects TCA Miss Dist (km) Collision Risk Probability Collision Risk Index (CRI) Action
CDM_260905-163305-949906-704021
2026-09-05T
16:33:49+0000
0.969 km
远距离
1.431378E-5 中风险 0.58
CDM_260905-145905-949906-704021
2026-09-05T
14:59:39+0000
2.096 km
极远距离
1.332408E-6 低风险 0.37